Flag for China Weather past 2 weeks in Suzhou, Jiangsu, China

28 °F


Feels Like: 20 °F
Forecast: 25 / 41 °F
Wind: 8 mph from Northwest

Location: Shanghai Hongqiao Airport

Current Time: Nov 27, 2015 at 7:48:32 AM

Latest Report: Nov 27, 2015 at 6:30 AM

Visibility: 10 mi

Pressure: 30.45 "Hg

Humidity: 69%

Dew point: 19 °F

Location of SuzhouLocation

Historic Weather in Suzhou — Graph


Suzhou temperature yesterday

Maximum temperature yesterday: 41 °F (at 12:00 AM)
Minimum temperature yesterday: 32 °F (at 10:00 PM)
Average temperature yesterday: 37 °F

Past Weeks' High & Low Weather Summary

High68 °F (Nov 15, 1:00 PM)100% (Nov 12, 7:00 PM)30.48 "Hg (Nov 12, 7:00 PM)
Low28 °F (Nov 27, 3:30 AM)41% (Nov 26, 5:00 PM)29.92 "Hg (Nov 16, 3:00 AM)
Average57 °F83%30.17 "Hg
* Reported Nov 12 6:30 AM — Nov 27 6:30 AM, Suzhou, Weather by CustomWeather, © 2015

Note: Actual official high and low records may vary slightly from our data, if they occured in-between our weather recording intervals... More about our weather records


Suzhou weather history for previous 24 hours

Time TempWeatherWind HumidityBarometerVisibility
6:30 AM
Fri, Nov 27
28 °FClear.8 mph69%30.45 "Hg10 mi
6:00 AM28 °FClear.6 mph69%30.45 "Hg10 mi
5:30 AM28 °FPassing clouds.6 mph69%30.45 "HgN/A
5:00 AM30 °FClear.8 mph64%30.45 "Hg10 mi
4:30 AM28 °FClear.8 mph69%30.45 "Hg10 mi
4:00 AM28 °FClear.8 mph69%30.45 "Hg10 mi
3:30 AM28 °FPassing clouds.6 mph69%30.45 "HgN/A
3:00 AM30 °FClear.10 mph59%30.45 "Hg10 mi
2:30 AM30 °FPassing clouds.8 mph59%30.45 "HgN/A
2:00 AM30 °FClear.10 mph59%30.45 "Hg10 mi
1:30 AM30 °FClear.15 mph59%30.45 "Hg10 mi
1:00 AM30 °FClear.13 mph64%30.45 "Hg10 mi
12:30 AM30 °FClear.13 mph69%30.45 "Hg10 mi
12:00 AM30 °FClear.13 mph69%30.45 "Hg10 mi
11:30 PM
Thu, Nov 26
32 °FClear.13 mph64%30.48 "Hg10 mi
11:00 PM32 °FClear.13 mph64%30.48 "Hg10 mi
10:30 PM32 °FPassing clouds.13 mph64%30.45 "HgN/A
10:00 PM32 °FClear.15 mph60%30.45 "Hg10 mi
9:30 PM34 °FClear.13 mph56%30.48 "Hg10 mi
9:00 PM34 °FClear.13 mph56%30.45 "Hg10 mi
8:30 PM34 °FClear.13 mph56%30.45 "Hg10 mi
8:00 PM34 °FClear.13 mph56%30.45 "Hg10 mi
7:30 PM36 °FClear.15 mph48%30.45 "Hg10 mi
7:00 PM37 °FClear.15 mph45%30.42 "Hg10 mi
6:30 PM37 °FClear.15 mph45%30.42 "Hg10 mi
6:00 PM37 °FClear.17 mph45%30.39 "Hg10 mi
5:30 PM37 °FClear.17 mph45%30.39 "Hg10 mi
5:00 PM37 °FClear.17 mph41%30.39 "Hg10 mi
4:30 PM39 °FPassing clouds.20 mph42%30.36 "HgN/A
4:00 PM39 °FSunny.17 mph42%30.36 "Hg10 mi
3:30 PM41 °FPassing clouds.17 mph42%30.36 "HgN/A
3:00 PM39 °FPassing clouds.20 mph42%30.36 "HgN/A
2:30 PM41 °FPassing clouds.20 mph45%30.36 "HgN/A
2:00 PM41 °FPassing clouds.20 mph45%30.36 "HgN/A
1:30 PM41 °FPassing clouds.20 mph45%30.36 "HgN/A
1:00 PM41 °FScattered clouds.17 mph49%30.36 "HgN/A
12:30 PM41 °FPartly sunny.17 mph49%30.36 "HgN/A
11:30 AM39 °FPartly sunny.20 mph52%30.39 "HgN/A
11:00 AM39 °FPartly sunny.17 mph56%30.39 "HgN/A
10:30 AM39 °FScattered clouds.17 mph56%30.42 "HgN/A
10:00 AM37 °FScattered clouds.20 mph56%30.42 "HgN/A
9:30 AM37 °FPassing clouds.17 mph60%30.42 "HgN/A
9:00 AM37 °FSunny.17 mph56%30.39 "Hg10 mi
8:30 AM36 °FPassing clouds.15 mph65%30.39 "HgN/A
8:00 AM36 °FSunny.15 mph65%30.39 "Hg10 mi
7:00 AM34 °FScattered clouds.17 mph65%30.36 "HgN/A
Weather by CustomWeather, © 2015

See weather overviewHow to use our weather pages